GW2042 Weather Reports


Display with metric or nautical units.
time (UTC)temp
F
wind
direction
speed
MPH
gust
MPH
rain 1hr
in
rain 24hr
in
rain mn
in
humidity
%
barometer
mb
20260509032016 67 173 2.0 5.0 0.00 0.02 0.02 89 1010.8
20260509031534 67 160 2.0 5.0 0.00 0.02 0.02 89 1010.6
20260509031016 67 155 1.0 5.0 0.00 0.02 0.02 88 1010.7
20260509030519 67 145 1.0 5.0 0.00 0.02 0.02 88 1010.4
20260509030034 68 0 1.0 6.0 0.00 0.02 0.02 88 1010.3
20260509025516 68 186 1.0 6.0 0.00 0.02 0.02 88 1010.3
20260509025015 68 159 2.0 6.0 0.00 0.02 0.02 88 1010.2
20260509024532 68 154 1.0 8.0 0.00 0.02 0.02 88 1010.1
20260509024017 68 148 2.0 8.0 0.00 0.02 0.02 88 1010.1
20260509023520 68 182 2.0 7.0 0.00 0.02 0.02 87 1010.1
20260509023043 68 144 2.0 7.0 0.00 0.02 0.02 88 1010.1
20260509022516 67 150 1.0 2.0 0.00 0.02 0.02 87 1010.2
20260509022017 68 159 0.0 5.0 0.00 0.02 0.02 86 1010.3
20260509021534 68 0 1.0 5.0 0.00 0.02 0.02 86 1010.2
20260509021015 68 171 1.0 3.0 0.00 0.02 0.02 86 1010.2
20260509020520 69 157 1.0 4.0 0.00 0.02 0.02 85 1010.2
20260509020034 69 157 1.0 6.0 0.00 0.02 0.02 85 1010.2
20260509015516 69 143 1.0 6.0 0.00 0.02 0.02 85 1010.1
20260509015016 69 140 1.0 5.0 0.00 0.02 0.02 84 1010.0
20260509014534 69 161 1.0 5.0 0.00 0.02 0.02 84 1010.0
20260509014015 69 0 0.0 5.0 0.00 0.02 0.02 83 1009.9
20260509013517 69 169 1.0 5.0 0.00 0.02 0.02 83 1009.9
20260509013048 69 155 0.0 4.0 0.00 0.02 0.02 83 1009.8
20260509012515 70 161 1.0 3.0 0.00 0.02 0.02 82 1009.6
20260509012017 70 175 0.0 6.0 0.00 0.02 0.02 82 1009.6
20260509011536 71 138 1.0 7.0 0.00 0.02 0.02 81 1009.5
20260509011015 71 137 2.0 7.0 0.00 0.02 0.02 81 1009.4
20260509010516 71 111 2.0 6.0 0.00 0.02 0.02 80 1009.3
20260509010034 71 197 1.0 7.0 0.00 0.02 0.02 79 1009.2
20260509005517 71 165 1.0 7.0 0.00 0.02 0.02 79 1009.2
20260509005016 72 138 1.0 6.0 0.00 0.02 0.02 79 1009.2
20260509004533 72 180 1.0 6.0 0.00 0.02 0.02 78 1009.2
20260509004016 72 159 1.0 4.0 0.00 0.02 0.02 78 1009.2
20260509003518 73 184 1.0 5.0 0.00 0.02 0.02 77 1009.0
20260509003034 73 175 1.0 5.0 0.00 0.02 0.02 77 1009.1
20260509002515 73 156 1.0 5.0 0.00 0.02 0.02 76 1009.3
20260509002015 74 157 1.0 5.0 0.00 0.02 0.02 76 1009.3
20260509001535 74 139 2.0 5.0 0.00 0.02 0.02 75 1009.4
20260509001016 74 75 1.0 6.0 0.00 0.02 0.02 75 1009.4
20260509000515 74 178 2.0 6.0 0.00 0.02 0.02 74 1009.3
20260509000031 74 191 1.0 3.0 0.00 0.02 0.02 75 1009.4
20260508235515 74 135 0.0 8.0 0.00 0.02 0.02 74 1009.5
20260508235016 75 165 2.0 8.0 0.00 0.02 0.02 73 1009.4
20260508234534 75 161 3.0 7.0 0.00 0.02 0.02 73 1009.3
20260508234017 76 173 2.0 7.0 0.00 0.02 0.02 73 1009.3
20260508233515 75 107 2.0 7.0 0.00 0.02 0.02 75 1009.4
20260508233033 74 196 1.0 7.0 0.00 0.02 0.02 74 1009.5
20260508232515 75 149 2.0 8.0 0.00 0.02 0.02 73 1009.3
20260508232016 76 158 3.0 8.0 0.00 0.02 0.02 71 1009.1
20260508231533 76 184 2.0 8.0 0.00 0.02 0.02 73 1009.1
20260508231016 76 170 2.0 8.0 0.00 0.02 0.02 73 1009.0
20260508230515 76 151 2.0 8.0 0.00 0.02 0.02 72 1009.0
20260508230048 76 133 3.0 9.0 0.00 0.02 0.02 72 1009.0
20260508225515 76 140 3.0 9.0 0.00 0.02 0.02 72 1009.0
20260508225015 75 133 4.0 10.0 0.00 0.02 0.02 73 1009.0
20260508224554 74 167 4.0 10.0 0.00 0.02 0.02 75 1009.2
20260508224015 74 170 3.0 9.0 0.00 0.02 0.02 74 1009.2
20260508223518 75 132 2.0 8.0 0.00 0.02 0.02 74 1009.3
20260508223034 75 160 2.0 8.0 0.00 0.02 0.02 74 1009.4
20260508222515 75 138 2.0 7.0 0.00 0.02 0.02 74 1009.5
20260508222016 75 181 1.0 10.0 0.00 0.02 0.02 74 1009.5
20260508221533 75 139 3.0 10.0 0.00 0.02 0.02 74 1009.5
20260508221022 75 194 1.0 6.0 0.00 0.02 0.02 74 1009.4
20260508220516 75 172 2.0 9.0 0.00 0.02 0.02 74 1009.4
20260508220033 75 151 2.0 9.0 0.00 0.02 0.02 74 1009.5
20260508215515 75 179 2.0 7.0 0.00 0.02 0.02 73 1009.5
20260508215016 76 188 2.0 7.0 0.00 0.02 0.02 73 1009.7
20260508214532 76 148 2.0 8.0 0.00 0.02 0.02 73 1009.7
20260508214019 75 163 2.0 8.0 0.00 0.02 0.02 74 1009.8
20260508213515 76 187 2.0 8.0 0.00 0.02 0.02 73 1009.8
20260508213031 76 160 3.0 8.0 0.00 0.02 0.02 71 1009.9
20260508212517 77 158 2.0 8.0 0.00 0.02 0.02 72 1009.9
20260508212014 77 170 2.0 7.0 0.00 0.02 0.02 71 1009.8
20260508211534 77 165 2.0 8.0 0.00 0.02 0.02 72 1010.0
20260508211016 76 142 3.0 8.0 0.00 0.02 0.02 73 1010.0
20260508210515 76 137 2.0 9.0 0.00 0.02 0.02 73 1010.1
20260508210033 76 172 2.0 9.0 0.00 0.02 0.02 72 1010.2
20260508205518 76 0 2.0 8.0 0.00 0.02 0.02 72 1010.2
20260508205015 76 182 3.0 9.0 0.00 0.02 0.02 71 1010.3
20260508204536 76 155 3.0 9.0 0.00 0.02 0.02 71 1010.3
20260508204018 78 149 2.0 9.0 0.00 0.02 0.02 69 1010.3
20260508203515 78 105 3.0 9.0 0.00 0.02 0.02 71 1010.3
20260508203032 77 145 3.0 9.0 0.00 0.02 0.02 71 1010.4
20260508202517 76 178 3.0 9.0 0.00 0.02 0.02 73 1010.6
20260508202015 76 146 3.0 8.0 0.00 0.02 0.02 72 1010.6
20260508201533 75 127 3.0 8.0 0.00 0.02 0.02 72 1010.6
20260508201017 75 155 3.0 9.0 0.00 0.02 0.02 72 1010.6
20260508200515 74 194 3.0 9.0 0.00 0.02 0.02 75 1010.8
20260508200040 74 128 3.0 8.0 0.00 0.02 0.02 76 1010.9
20260508195518 75 205 3.0 9.0 0.01 0.02 0.02 76 1011.1
20260508195017 73 163 2.0 9.0 0.01 0.02 0.02 78 1011.1
20260508194530 73 146 3.0 8.0 0.01 0.02 0.02 77 1011.1
20260508194015 72 155 3.0 9.0 0.01 0.02 0.02 80 1011.2
20260508193515 71 146 3.0 9.0 0.01 0.02 0.02 81 1011.2
20260508193059 70 167 5.0 9.0 0.02 0.02 0.02 83 1011.3
20260508192515 69 165 4.0 9.0 0.02 0.02 0.02 83 1011.2
20260508192021 68 149 3.0 10.0 0.02 0.02 0.02 84 1011.4
20260508191532 67 111 4.0 10.0 0.02 0.02 0.02 83 1011.5
20260508191018 67 121 5.0 10.0 0.02 0.02 0.02 87 1011.6
20260508190522 66 113 4.0 8.0 0.02 0.02 0.02 88 1011.6
20260508190037 65 136 1.0 4.0 0.02 0.02 0.02 88 1012.1
20260508185517 64 132 2.0 4.0 0.01 0.01 0.01 89 1012.3
20260508185015 64 173 0.0 2.0 0.01 0.01 0.01 88 1012.8
20260508184537 65 0 0.0 5.0 0.01 0.01 0.01 87 1013.0
20260508184014 65 173 1.0 5.0 0.01 0.01 0.01 85 1013.1
20260508183514 67 171 1.0 6.0 0.01 0.01 0.01 81 1013.1
20260508183033 67 160 1.0 6.0 0.00 0.00 0.00 79 1013.1
20260508182515 68 147 2.0 7.0 0.00 0.00 0.00 77 1012.9
20260508182015 69 198 3.0 7.0 0.00 0.00 0.00 75 1012.9
20260508181531 70 185 3.0 7.0 0.00 0.00 0.00 74 1012.8
20260508181016 71 150 3.0 7.0 0.00 0.00 0.00 73 1012.9
20260508180515 70 170 1.0 6.0 0.00 0.00 0.00 72 1012.9
20260508180031 70 0 1.0 8.0 0.00 0.00 0.00 72 1013.1
20260508175515 70 153 2.0 8.0 0.00 0.00 0.00 72 1013.1
20260508175018 71 140 2.0 8.0 0.00 0.00 0.00 70 1013.0
20260508174543 71 153 2.0 7.0 0.00 0.00 0.00 71 1013.2
20260508174016 71 160 3.0 7.0 0.00 0.00 0.00 71 1013.2
20260508173515 72 139 2.0 8.0 0.00 0.00 0.00 70 1013.3
20260508173034 73 161 2.0 9.0 0.00 0.00 0.00 69 1013.4
20260508172515 73 150 3.0 9.0 0.00 0.00 0.00 68 1013.3
20260508172015 74 183 2.0 7.0 0.00 0.00 0.00 67 1013.2
20260508171530 75 161 2.0 7.0 0.00 0.00 0.00 65 1013.3
20260508171018 76 145 2.0 7.0 0.00 0.00 0.00 66 1013.2
20260508170514 74 115 2.0 6.0 0.00 0.00 0.00 69 1013.2
20260508170030 72 181 1.0 5.0 0.00 0.00 0.00 68 1013.2
20260508165515 72 154 2.0 5.0 0.00 0.00 0.00 70 1013.3
20260508165014 71 123 2.0 5.0 0.00 0.00 0.00 70 1013.2
20260508164536 70 136 1.0 5.0 0.00 0.00 0.00 72 1013.4
20260508164014 69 0 0.0 5.0 0.00 0.00 0.00 71 1013.5
20260508163516 70 121 1.0 5.0 0.00 0.00 0.00 70 1013.6
20260508163035 70 186 2.0 7.0 0.00 0.00 0.00 70 1013.7
20260508162516 70 251 2.0 7.0 0.00 0.00 0.00 68 1013.8
20260508162016 70 157 1.0 4.0 0.00 0.00 0.00 70 1013.8
20260508161540 68 93 1.0 4.0 0.00 0.00 0.00 72 1014.0
20260508161016 68 204 1.0 4.0 0.00 0.00 0.00 73 1014.1
20260508160515 68 148 0.0 4.0 0.00 0.00 0.00 73 1014.2
20260508160035 68 148 1.0 6.0 0.00 0.00 0.00 74 1014.4
20260508155516 68 196 1.0 6.0 0.00 0.00 0.00 73 1014.4
20260508155016 67 155 1.0 7.0 0.00 0.00 0.00 73 1014.5
20260508154532 67 198 2.0 7.0 0.00 0.00 0.00 76 1014.5
20260508154015 67 211 2.0 7.0 0.00 0.00 0.00 74 1014.4
20260508153517 67 213 2.0 7.0 0.00 0.00 0.00 74 1014.5
20260508153038 67 168 1.0 7.0 0.00 0.00 0.00 74 1014.5
20260508152516 67 198 1.0 6.0 0.00 0.00 0.00 75 1014.5
20260508152018 67 124 0.0 6.0 0.00 0.00 0.00 74 1014.4
20260508151540 66 205 2.0 6.0 0.00 0.00 0.00 74 1014.5
20260508151019 67 232 1.0 5.0 0.00 0.00 0.00 73 1014.6
20260508150517 67 167 1.0 5.0 0.00 0.00 0.00 73 1014.6
20260508150037 66 165 1.0 5.0 0.00 0.00 0.00 74 1014.6
20260508145516 66 172 1.0 5.0 0.00 0.00 0.00 75 1014.7
20260508145019 65 140 2.0 8.0 0.00 0.00 0.00 75 1014.6
20260508144531 65 142 2.0 8.0 0.00 0.00 0.00 75 1014.7
20260508144016 65 192 1.0 7.0 0.00 0.00 0.00 74 1014.7
20260508143517 66 188 2.0 7.0 0.00 0.00 0.00 73 1014.6
20260508143031 65 185 2.0 7.0 0.00 0.00 0.00 73 1014.6
20260508142516 65 228 2.0 7.0 0.00 0.00 0.00 73 1014.6
20260508142016 65 190 2.0 4.0 0.00 0.00 0.00 73 1014.6
20260508141535 65 155 1.0 7.0 0.00 0.00 0.00 74 1014.8
20260508141017 65 194 1.0 7.0 0.00 0.00 0.00 74 1014.8
20260508140515 64 171 1.0 6.0 0.00 0.00 0.00 73 1014.8
20260508140031 64 154 1.0 5.0 0.00 0.00 0.00 74 1014.7
20260508135517 63 118 1.0 4.0 0.00 0.00 0.00 75 1014.7
20260508135016 63 166 0.0 5.0 0.00 0.00 0.00 75 1014.7
20260508134532 62 202 1.0 6.0 0.00 0.00 0.00 74 1014.8
20260508134016 62 175 2.0 6.0 0.00 0.00 0.00 77 1014.9
20260508133516 62 198 1.0 4.0 0.00 0.00 0.00 77 1014.9
20260508133056 61 175 0.0 5.0 0.00 0.00 0.00 78 1015.0
20260508132515 61 0 1.0 5.0 0.00 0.00 0.00 78 1015.0
20260508132020 60 0 1.0 5.0 0.00 0.00 0.00 80 1014.9
20260508131535 60 151 0.0 4.0 0.00 0.00 0.00 81 1015.0
20260508131015 60 126 0.0 5.0 0.00 0.00 0.00 82 1015.0
20260508130515 59 0 1.0 5.0 0.00 0.00 0.00 83 1015.0
20260508130029 59 155 0.0 5.0 0.00 0.00 0.00 83 1015.0
20260508125515 59 0 0.0 5.0 0.00 0.00 0.00 85 1014.9
20260508125018 58 169 1.0 5.0 0.00 0.00 0.00 86 1014.9
20260508124534 58 173 1.0 4.0 0.00 0.00 0.00 87 1015.0
20260508124015 58 154 0.0 3.0 0.00 0.00 0.00 88 1015.0
20260508123515 57 0 0.0 2.0 0.00 0.00 0.00 89 1015.1
20260508123030 57 0 0.0 2.0 0.00 0.00 0.00 90 1015.1
20260508122516 56 0 0.0 1.0 0.00 0.00 0.00 91 1015.1
20260508122016 56 0 0.0 0.0 0.00 0.00 0.00 91 1015.2
20260508121534 55 0 0.0 0.0 0.00 0.00 0.00 91 1015.1
20260508121016 55 0 0.0 0.0 0.00 0.00 0.00 91 1015.1
20260508120515 54 0 0.0 2.0 0.00 0.00 0.00 91 1015.2
20260508120030 54 0 0.0 2.0 0.00 0.00 0.00 91 1015.2
20260508115515 54 0 0.0 2.0 0.00 0.00 0.00 91 1015.1
20260508115014 54 0 0.0 0.0 0.00 0.00 0.00 90 1015.1
20260508114532 54 0 0.0 0.0 0.00 0.00 0.00 90 1014.9
20260508114014 55 0 0.0 1.0 0.00 0.00 0.00 90 1015.0
20260508113517 55 0 0.0 1.0 0.00 0.00 0.00 90 1015.0
20260508113035 55 0 0.0 2.0 0.00 0.00 0.00 90 1015.0
20260508112517 55 0 0.0 3.0 0.00 0.00 0.00 90 1015.0
20260508112014 55 131 1.0 4.0 0.00 0.00 0.00 90 1014.9
20260508111531 55 165 1.0 4.0 0.00 0.00 0.00 90 1015.0
20260508111015 56 0 0.0 2.0 0.00 0.00 0.00 90 1015.0
20260508110514 56 0 0.0 1.0 0.00 0.00 0.00 90 1015.2
20260508110032 56 0 0.0 1.0 0.00 0.00 0.00 91 1015.3
20260508105515 55 0 0.0 0.0 0.00 0.00 0.00 91 1015.4
20260508105015 55 0 0.0 0.0 0.00 0.00 0.00 91 1015.3
20260508104530 55 0 0.0 0.0 0.00 0.00 0.00 91 1015.3
20260508104015 55 0 0.0 0.0 0.00 0.00 0.00 91 1015.2
20260508103514 55 0 0.0 0.0 0.00 0.00 0.00 91 1015.4
20260508103036 55 0 0.0 0.0 0.00 0.00 0.00 90 1015.2
20260508102515 55 0 0.0 0.0 0.00 0.00 0.00 90 1015.3
20260508102015 55 0 0.0 0.0 0.00 0.00 0.00 89 1015.3
20260508101542 56 0 0.0 0.0 0.00 0.00 0.00 89 1015.4
20260508101015 56 0 0.0 0.0 0.00 0.00 0.00 88 1015.4
20260508100515 56 0 0.0 0.0 0.00 0.00 0.00 89 1015.5
20260508100031 55 0 0.0 0.0 0.00 0.00 0.00 89 1015.5
20260508095516 55 0 0.0 0.0 0.00 0.00 0.00 89 1015.5
20260508095018 55 0 0.0 0.0 0.00 0.00 0.00 90 1015.4
20260508094528 55 0 0.0 0.0 0.00 0.00 0.00 90 1015.4
20260508094018 54 0 0.0 0.0 0.00 0.00 0.00 91 1015.4
20260508093517 54 0 0.0 2.0 0.00 0.00 0.00 91 1015.5
20260508093033 54 0 0.0 2.0 0.00 0.00 0.00 91 1015.4
20260508092516 53 0 1.0 2.0 0.00 0.00 0.00 91 1015.5
20260508092015 53 0 0.0 1.0 0.00 0.00 0.00 90 1015.4
20260508091559 54 0 0.0 1.0 0.00 0.00 0.00 90 1015.2
20260508091015 54 0 0.0 2.0 0.00 0.00 0.00 90 1015.1
20260508090516 54 0 0.0 2.0 0.00 0.00 0.00 90 1015.0
20260508090033 54 142 0.0 2.0 0.00 0.00 0.00 90 1014.9
20260508085515 54 0 0.0 0.0 0.00 0.00 0.00 89 1014.9
20260508085015 54 0 0.0 0.0 0.00 0.00 0.00 89 1014.7
20260508084533 55 0 0.0 1.0 0.00 0.00 0.00 89 1014.8
20260508084022 54 0 0.0 1.0 0.00 0.00 0.00 89 1014.7
20260508083515 55 0 0.0 2.0 0.00 0.00 0.00 89 1014.4
20260508083036 55 0 0.0 5.0 0.00 0.00 0.00 89 1014.5
20260508082515 55 0 0.0 5.0 0.00 0.00 0.00 89 1014.5
20260508082016 55 145 1.0 5.0 0.00 0.00 0.00 89 1014.5
20260508081531 55 143 0.0 5.0 0.00 0.00 0.00 89 1014.4
20260508081015 56 170 2.0 5.0 0.00 0.00 0.00 89 1014.7
20260508080516 56 158 2.0 5.0 0.00 0.00 0.00 89 1014.7
20260508080029 56 159 2.0 5.0 0.00 0.00 0.00 90 1014.9
20260508075516 56 153 1.0 3.0 0.00 0.00 0.00 90 1015.0
20260508075021 56 128 0.0 1.0 0.00 0.00 0.00 91 1015.1
20260508074532 56 0 0.0 0.0 0.00 0.00 0.00 90 1015.4
20260508074016 56 0 0.0 0.0 0.00 0.00 0.00 89 1015.5
20260508073516 56 0 0.0 0.0 0.00 0.00 0.00 89 1015.4
20260508073035 56 0 0.0 0.0 0.00 0.00 0.00 89 1015.6
20260508072519 56 0 0.0 0.0 0.00 0.00 0.00 89 1015.7
20260508072016 56 0 0.0 0.0 0.00 0.00 0.00 89 1015.8
20260508071533 56 0 0.0 0.0 0.00 0.00 0.00 89 1015.9
20260508071018 56 0 0.0 0.0 0.00 0.00 0.00 89 1015.9
20260508070517 56 0 0.0 0.0 0.00 0.00 0.00 89 1016.0
20260508070034 55 0 0.0 0.0 0.00 0.00 0.00 90 1016.1
20260508065516 55 0 0.0 0.0 0.00 0.00 0.00 90 1016.1
20260508065017 55 0 0.0 0.0 0.00 0.00 0.00 91 1016.1
20260508064537 54 0 0.0 0.0 0.00 0.00 0.00 91 1016.1
20260508064016 54 0 0.0 0.0 0.00 0.00 0.00 91 1016.2
20260508063521 54 0 0.0 0.0 0.00 0.00 0.00 90 1016.1
20260508063057 54 0 0.0 0.0 0.00 0.00 0.00 90 1016.0
20260508062521 54 0 0.0 0.0 0.00 0.00 0.00 89 1015.9
20260508062015 54 0 0.0 0.0 0.00 0.00 0.00 90 1015.9
20260508061532 54 0 0.0 0.0 0.00 0.00 0.00 90 1016.0
20260508061016 54 0 0.0 0.0 0.00 0.00 0.00 89 1016.0
20260508060518 54 0 0.0 0.0 0.00 0.00 0.00 90 1016.1
20260508060031 54 0 0.0 0.0 0.00 0.00 0.00 90 1016.2
20260508055516 54 0 0.0 0.0 0.00 0.00 0.00 89 1016.2
20260508055013 55 0 0.0 0.0 0.00 0.00 0.00 89 1016.1
20260508054531 55 0 0.0 0.0 0.00 0.00 0.00 89 1016.1
20260508054016 55 0 0.0 0.0 0.00 0.00 0.00 88 1016.2
20260508053515 55 0 0.0 0.0 0.00 0.00 0.00 88 1016.2
20260508053043 56 0 0.0 0.0 0.00 0.00 0.00 87 1016.2
20260508052516 56 0 0.0 0.0 0.00 0.00 0.00 88 1016.2
20260508052020 56 0 0.0 0.0 0.00 0.00 0.00 88 1016.3
20260508051537 56 0 0.0 0.0 0.00 0.00 0.00 87 1016.2
20260508051016 56 0 0.0 0.0 0.00 0.00 0.00 86 1016.2
20260508050516 56 0 0.0 0.0 0.00 0.00 0.00 86 1016.2
20260508050032 57 0 0.0 0.0 0.00 0.00 0.00 85 1016.4
20260508045515 57 0 0.0 0.0 0.00 0.00 0.00 85 1016.6
20260508045017 57 0 0.0 0.0 0.00 0.00 0.00 85 1016.6
20260508044531 57 0 0.0 0.0 0.00 0.00 0.00 85 1016.6
20260508044014 57 0 0.0 0.0 0.00 0.00 0.00 85 1016.8
20260508043518 57 0 0.0 0.0 0.00 0.00 0.00 85 1016.8
20260508043030 57 0 0.0 0.0 0.00 0.00 0.00 84 1016.8
20260508042516 57 0 0.0 0.0 0.00 0.00 0.00 84 1016.6
20260508042022 58 0 0.0 1.0 0.00 0.00 0.00 83 1016.6
20260508041528 58 0 0.0 1.0 0.00 0.00 0.00 83 1016.7
20260508041016 58 0 0.0 1.0 0.00 0.00 0.00 83 1016.7
20260508040516 58 0 0.0 1.0 0.00 0.00 0.00 82 1016.7
20260508040032 58 0 0.0 0.0 0.00 0.00 0.00 82 1016.6
20260508035515 58 0 0.0 0.0 0.00 0.00 0.00 82 1016.6
20260508035018 58 0 0.0 1.0 0.00 0.00 0.00 81 1016.5
20260508034532 59 0 0.0 1.0 0.00 0.00 0.00 80 1016.4
20260508034016 59 0 0.0 2.0 0.00 0.00 0.00 80 1016.4
20260508033515 59 0 0.0 2.0 0.00 0.00 0.00 80 1016.6
20260508033034 59 128 0.0 0.0 0.00 0.00 0.00 80 1016.6
20260508032516 59 0 0.0 1.0 0.00 0.00 0.00 79 1016.3